Flag for U.S.A. Weather past 2 weeks in Fairbanks, Alaska, U.S.A.

Now
38 °F

Overcast.


Feels Like: 38 °F
Forecast: 31 / 52 °F
Wind: No wind

Location: Wainwright U. S. Army Airfield

Current Time: Aug 31, 2014 at 2:37:29 AM

Latest Report: Aug 31, 2014 at 1:56 AM


Visibility: 10 mi

Pressure: 29.70 "Hg

Humidity: 83%

Dew point: 33 °F

Location of FairbanksLocation

Historic Weather in Fairbanks — Graph

°F

Fairbanks temperature yesterday

Maximum temperature yesterday: 52 °F (at 3:56 PM)
Minimum temperature yesterday: 32 °F (at 5:56 AM)
Average temperature yesterday: 43 °F

Past Weeks' High & Low Weather Summary

 TemperatureHumidityPressure
High74 °F (Aug 24, 2:56 PM)96% (Aug 18, 3:56 AM)30.24 "Hg (Aug 18, 3:56 AM)
Low32 °F (Aug 30, 5:56 AM)32% (Aug 24, 2:56 PM)29.52 "Hg (Aug 29, 11:55 AM)
Average55 °F72%29.83 "Hg
* Reported Aug 16 12:56 AM — Aug 31 12:56 AM, Fairbanks, Weather by CustomWeather, © 2014

Note: Actual official high and low records may vary slightly from our data, if they occured in-between our weather recording intervals... More about our weather records

Advertising

Fairbanks weather history for previous 24 hours

 ConditionsComfort  
Time TempWeatherWind HumidityBarometerVisibility
12:56 AM
Aug 31
38 °FOvercast.No wind79%29.69 "Hg10 mi
11:56 PM
Aug 30
37 °FPassing clouds.No wind82%29.68 "Hg10 mi
10:56 PM38 °FOvercast.No wind79%29.68 "Hg10 mi
9:56 PM43 °FSunny.No wind62%29.67 "Hg10 mi
8:56 PM49 °FSunny.3 mph50%29.65 "Hg10 mi
7:56 PM52 °FPartly sunny.7 mph38%29.66 "Hg10 mi
6:56 PM51 °FSunny.5 mph38%29.67 "Hg10 mi
5:56 PM52 °FSunny.No wind35%29.67 "Hg10 mi
4:56 PM52 °FSunny.No wind35%29.67 "Hg10 mi
3:56 PM52 °FSunny.7 mph37%29.68 "Hg10 mi
2:56 PM50 °FSunny.5 mph41%29.69 "Hg10 mi
1:56 PM49 °FOvercast.7 mph46%29.70 "Hg10 mi
12:56 PM49 °FScattered clouds.No wind44%29.71 "Hg10 mi
11:56 AM47 °FSunny.5 mph59%29.72 "Hg10 mi
10:56 AM45 °FSunny.No wind68%29.73 "Hg10 mi
9:56 AM40 °FSunny.5 mph86%29.74 "Hg10 mi
8:56 AM38 °FSunny.5 mph83%29.74 "Hg10 mi
7:56 AM34 °FScattered clouds.No wind88%29.74 "Hg10 mi
6:56 AM32 °FClear.No wind88%29.74 "Hg10 mi
5:56 AM32 °FClear.No wind88%29.74 "Hg10 mi
4:56 AM35 °FClear.3 mph88%29.73 "Hg10 mi
3:56 AM38 °FOvercast.3 mph86%29.72 "Hg10 mi
2:56 AM39 °FOvercast.3 mph86%29.71 "Hg10 mi
Weather by CustomWeather, © 2014

See weather overviewHow to use our weather pages